Regional Weather Roundup
Issued by NWS

Home | Current Version | Previous Version | Graphics & Text | Print | Product List | Glossary Off
Versions: 1 2 3 4 5 6 7 8 9 10 11 12 13 14 15 16 17 18 19 20 21 22 23 24 25 26 27 28 29 30 31 32 33 34 35 36 37 38 39 40 41 42 43 44 45 46 47 48 49 50

000
ASUS43 KMKX 221521
RWRWI

WISCONSIN REGIONAL WEATHER ROUNDUP
NATIONAL WEATHER SERVICE MILWAUKEE/SULLIVAN WI
1000 AM CDT FRI AUG 22 2014

NOTE: "FAIR" INDICATES FEW OR NO CLOUDS BELOW 12,000 FEET WITH NO
SIGNIFICANT WEATHER AND/OR OBSTRUCTIONS TO VISIBILITY.

WIZ001-002-006>008-014>016-023>028-221600-
NORTHWEST WISCONSIN

CITY           SKY/WX    TMP DP  RH WIND       PRES   REMARKS
SUPERIOR ARPT  CLOUDY    61  60  99 E9        29.98R FOG
ASHLAND        CLOUDY    65  63  93 NE9       29.97R FOG
HAYWARD        CLOUDY    69  68  96 NE5       29.95R FOG
SIREN          CLOUDY    64  64  98 N5        29.96R FOG
RICE LAKE      CLOUDY    71  70  95 CALM      29.95R FOG
LADYSMITH      CLOUDY    71  69  96 CALM      29.95S FOG
EAU CLAIRE     CLOUDY    74  73  97 W5        29.91R
MENOMONIE      CLOUDY    76  72  87 W5        29.93R
NEW RICHMOND   CLOUDY    68  68 100 NW3       29.95R FOG
OSCEOLA        CLOUDY    68  68  98 CALM      29.97R
$$

WIZ003>005-009-010-017-018-221600-
NORTH CENTRAL WISCONSIN

CITY           SKY/WX    TMP DP  RH WIND       PRES   REMARKS
WOODRUFF       CLOUDY    69  67  93 SE5       29.98R FOG
RHINELANDER    CLOUDY    65  65 100 SE6       29.99R FOG
EAGLE RIVER    CLOUDY    66  65  97 SE5       29.98R
LAND O LAKES   CLOUDY    66  65  96 SE3       30.00R
PHILLIPS       CLOUDY    68  67  96 CALM      29.96R
TOMAHAWK       CLOUDY    67  66  96 CALM      29.97S FOG
MEDFORD        FOG       68  68 100 E6        29.95S VSB 1/4
MERRILL        CLOUDY    66  66 100 CALM      29.96R FOG
$$

WIZ029-030-035-036-043>047-221600-
CENTRAL WISCONSIN

CITY           SKY/WX    TMP DP  RH WIND       PRES   REMARKS
WAUSAU         CLOUDY    67  67 100 SE5       29.94S FOG
MOSINEE        CLOUDY    66  66 100 E3        29.96S FOG
MARSHFIELD     CLOUDY    73  71  93 S7        29.95R FOG
STEVENS POINT  CLOUDY    68  67  97 SE7       29.96S FOG
WAUPACA        FOG       72  71  95 CALM      29.95S VSB 3/4
WAUTOMA        CLOUDY    76  73  90 SE5       29.95R
WISC RAPIDS    CLOUDY    75  71  87 S5        29.95S
CAMP DOUGLAS   CLOUDY    73  73 100 S6        29.94S FOG
$$

WIZ011>013-019>022-031-037>040-048>050-221600-
NORTHEAST WISCONSIN

CITY           SKY/WX    TMP DP  RH WIND       PRES   REMARKS
ANTIGO         CLOUDY    65  65 100 SE7       29.98R FOG
STURGEON BAY   CLOUDY    70  66  88 E5        29.98R
GREEN BAY      CLOUDY    73  69  87 SE5       29.95S
MANITOWOC      FOG       70  70 100 E8        29.97R VSB 1
APPLETON       PTSUNNY   72  70  94 VRB5      29.96S FOG
CLINTONVILLE   CLOUDY    68  68 100 CALM      29.95S FOG
OSHKOSH        CLOUDY    74  71  91 E3        29.95R FOG
$$

WIZ032>034-041-042-053>061-221600-
SOUTHWEST WISCONSIN

CITY           SKY/WX    TMP DP  RH WIND       PRES   REMARKS
LA CROSSE      CLOUDY    77  72  84 VRB3      29.92R HAZE
SPARTA         CLOUDY    74  72  91 CALM      29.94R FOG
VIROQUA        CLOUDY    74  74 100 SE3       29.95S
BOSCOBEL       PTSUNNY   81  73  76 CALM      29.94R HX  86
PRAIRIE DU CHI CLOUDY    75  71  89 CALM      29.92S FOG
PLATTEVILLE    CLOUDY    76  75  96 CALM      29.95R
$$

WIZ056-057-062-063-064-067-068-221600-
SOUTH CENTRAL WISCONSIN

CITY           SKY/WX    TMP DP  RH WIND       PRES   REMARKS
BARABOO/DELLS  CLOUDY    79  73  80 S5        29.95S HX  82
LONE ROCK      CLOUDY    81  74  79 E5        29.94S HX  86
WATERTOWN      CLOUDY    74  74 100 CALM      29.95R
MADISON        CLOUDY    76  72  87 SE3       29.95S FOG
MIDDLETON      CLOUDY    79  76  90 CALM      29.96S HX  82
MONROE         CLOUDY    75  73  94 S6        29.96R FOG
JANESVILLE     CLOUDY    81  73  78 SW6       29.94R HX  85
$$

WIZ051-052-058>065-066-070>072-221600-
SOUTHEAST WISCONSIN

CITY           SKY/WX    TMP DP  RH WIND       PRES   REMARKS
MILWAUKEE      FOG       72  69  90 E8        29.96R VSB 1/4
WAUKESHA       MOSUNNY   75  72  88 CALM      29.96S
MILWAUKEE/TIMM CLOUDY    75  70  83 CALM      29.96S FOG
RACINE         CLOUDY    74  70  87 N8        29.98R
BURLINGTON     PTSUNNY   72  72  99 CALM      29.96R
KENOSHA        CLOUDY    77  73  87 E3        29.97R
FOND DU LAC    PTSUNNY   78  71  79 S3        29.96R HX  80
SHEBOYGAN      CLOUDY    71  69  93 CALM      29.97R FOG
WEST BEND      CLOUDY    72  70  94 CALM      29.96S FOG
JUNEAU         CLOUDY    74  49  41 SW3       29.96S HAZE
$$

LSZ147-162-221600-
LAKE SUPERIOR

STATION/POSITION TIME  TEMP    WIND        PRES    WAVE
                       AIR SEA DIR/SP/G            HT/PER
                 (UTC) (F)     (DEG/KT/KT) (MB)    (FT/S)
W MID LAKE BUOY  1450   57 58   40/ 14/ 16 1014.6R   2/ 4
DEVILS ISLAND    1500   59      60/ 11/ 12 1014.9R
PORT WING        1400   58      40/  9/ 10 1014.6
SAXON HARBOR     1400   65      50/  3/  5 1013.9R
$$

LMZ867-665-643>646-221600-
LAKE MICHIGAN

STATION/POSITION TIME  TEMP    WIND        PRES    WAVE
                       AIR SEA DIR/SP/G            HT/PER
                 (UTC) (F)     (DEG/KT/KT) (MB)    (FT/S)
N MID LAKE BUOY  1450   66 65  120/  8/  8 1014.4F   0
NORTHPORT PIER   1400   66     130/  4/  5 1014.9R
SISTER BAY       1426   68     150/  7/  9   N/A
KEWAUNEE LAKESHO 1500   67      80/  2/  3 1014.0R
SHEBOYGAN LAKESH 1500   67 65  180/  4/  5 1014.8R
ATWATER BUOY     1500   69     110/  4/  6 1015.5R
MILWAUKEE LAKESH 1500   69      80/  7/  8   N/A
S MID LAKE BUOY  1450   70 69  140/  4/  6 1014.1F
KENOSHA   LAKESH 1500   71      90/  4/  4 1014.2R
$$

TC  - TEMPERATURE IN CELSIUS
VSB - VISIBILITY IN STATUTE MILES
WCI - WIND CHILL INDEX
HX  - HEAT INDEX



USA.gov is the U.S. government's official web portal to all federal, state and local government web resources and services.